Regional Weather Roundup
Issued by NWS Albany, NY

Home | Current Version | Previous Version | Text Only | Print | Product List | Glossary On
Versions: 1 2 3 4 5 6 7 8 9 10 11 12 13 14 15 16 17 18 19 20 21 22 23 24 25 26 27 28 29 30 31 32 33 34 35 36 37 38 39 40 41 42 43 44 45 46 47 48 49 50
000
ASUS41 KALY 210210
RWRALY

NEW YORK STATE HOURLY WEATHER ROUNDUP
NATIONAL WEATHER SERVICE ALBANY NY
1000 PM EDT SAT SEP 20 2014

NOTE: "FAIR" INDICATES FEW OR NO CLOUDS BELOW 12,000 FEET WITH NO
SIGNIFICANT WEATHER AND/OR NO OBSTRUCTIONS TO VISIBILITY.

NYZ032-033-038>043-046>054-057>066-NYZ062>081-210300-
EAST


CITY           SKY/WX    TMP DP  RH WIND       PRES   REMARKS
ALBANY         PTCLDY    67  57  70 S17G25    30.02F
GLENS FALLS    PTCLDY    65  56  72 S8        30.01S
POUGHKEEPSIE   PTCLDY    64  58  80 SE3       30.08F
NEWBURGH       CLEAR     66  59  77 S5        30.11S
MONTGOMERY     CLEAR     61  56  83 S6        30.08F
WHITE PLAINS   MOCLDY    64  61  90 CALM      30.11F
ISLIP          MOCLDY    68  62  81 SE7       30.10F
NEW YORK CITY  PTCLDY    69  63  81 S10       30.09F
CENTRAL PARK   CLEAR     69  62  78 VRB7      30.12F
$$

NYZ005>009-017-018-044>046-055-056-210300-
CENTRAL


CITY           SKY/WX    TMP DP  RH WIND       PRES   REMARKS
FULTON         CLEAR     66  58  75 S5        29.90S
SYRACUSE       PTCLDY    71  58  63 S15G23    29.91S
ROME           CLOUDY    66  58  75 E8        29.97S
ELMIRA         CLEAR     68  59  73 W9G16     29.96R
BINGHAMTON     CLEAR     63  56  78 S13G21    30.01F
MONTICELLO     CLEAR     61  57  88 S10       30.10F
$$

NYZ026>034-041>043-210300-
NORTH


CITY           SKY/WX    TMP DP  RH WIND       PRES   REMARKS
WATERTOWN      CLEAR     70  56  61 S12G20    29.86F
FORT DRUM      NOT AVBL
MASSENA        MOCLDY    69  58  67 SW14G22   29.84F
SARANAC LAKE   PTCLDY    62  55  77 SW17G23   29.92F
PLATTSBURGH    CLEAR     64  57  78 S17G23    29.90S
$$

NYZ001>004-010>016-019>021-210300-
WEST


CITY           SKY/WX    TMP DP  RH WIND       PRES   REMARKS
NIAGARA FALLS  MOCLDY    72  60  66 S17       29.82S
BUFFALO        PTCLDY    71  60  68 SW16      29.85S
DUNKIRK        PTCLDY    71  60  68 S21G33    29.86S
JAMESTOWN      MOCLDY    66  59  77 S12G18    29.95R
WELLSVILLE     CLEAR     66  56  70 S13G23    29.98R
ROCHESTER      PTCLDY    67  57  70 S7        29.86S
PENN YAN       CLEAR     67  58  72 S8        29.93R
$$

             KEY
       WCI = WIND CHILL INDEX
       VSB = VISIBILITY
       HX  = HEAT INDEX
$$


USA.gov is the U.S. government's official web portal to all federal, state and local government web resources and services.